Tracking 28565 objects as of 3-Mar-2024
HD Live streaming from Space Station
objects crossing your sky now

COSMOS 1771

Track COSMOS 1771 now!
10-day predictions
COSMOS 1771 is classified as:


NORAD ID: 16917
Int'l Code: 1986-062A
Perigee: 916.9 km
Apogee: 1,007.0 km
Inclination: 65.0 °
Period: 104.2 minutes
Semi major axis: 7332 km
RCS: 2.6102 m2 (large)
Launch date: August 20, 1986
Source: Commonwealth of Independent States (former USSR) (CIS)
Launch site: TYURATAM MISSILE AND SPACE COMPLEX (TTMTR)
Your satellite tracking list
Your tracking list is empty




NASA's NSSDC Master Catalog

Two Line Element Set (TLE):
1 16917U 86062A   24063.21150483 -.00000061  00000-0  24888-4 0  9997
2 16917  64.9858 353.4544 0061438 225.5504 134.0521 13.82569367896198
Source of the keplerian elements: AFSPC